Wind_Speed
9 7 6 4 3 3 4 5 5 5 5 5 5 4 4 3 2 1 2 3 4 5 6 7 8 9 11 12 13 14 15 16 17 18 19 19 20 20 20 21 21 22 23 24 24 25 25 26 26
12 11 9 8 8 8 8 8 8 7 5 4 3 2 1 1 2 3 4 5 6 7 8 10 11 12 14 15 16 17 18 19 20 20 21 21 21 21 21 22 23 23 24 25 26 27 27 28 29
13 11 11 11 10 9 9 8 7 5 4 2 1 2 4 4 5 6 7 7 8 9 11 12 14 15 17 18 19 20 20 21 21 21 21 21 22 22 23 24 25 25 26 27 28 28 29 30 32
11 9 9 9 8 7 6 4 2 1 1 3 5 6 7 7 7 8 8 9 10 11 13 15 17 18 19 20 20 21 21 21 21 21 21 22 23 24 25 26 28 28 29 30 31 31 32 33 34
7 6 6 5 4 3 1 1 3 4 6 7 8 9 9 9 9 9 10 10 12 14 15 17 19 20 20 20 20 20 20 20 21 21 22 23 25 26 27 29 30 31 32 33 34 35 36 37 37
4 3 3 2 2 3 4 6 7 8 9 10 10 10 10 10 10 10 11 12 14 16 17 18 19 19 19 19 19 20 20 21 22 23 24 26 27 28 29 30 31 32 34 35 36 37 39 40 42
4 5 5 5 6 7 8 9 10 11 11 11 10 10 11 11 11 11 12 14 15 17 18 18 17 17 18 18 19 20 21 22 23 24 25 27 28 29 30 31 32 34 35 36 38 40 42 43 45
6 8 8 9 9 10 11 11 11 11 11 11 10 10 12 12 12 13 14 15 16 16 16 16 16 17 18 19 20 21 22 23 24 25 26 27 28 28 29 30 32 33 35 37 39 41 43 45 47
9 9 10 10 10 11 11 11 11 11 12 11 10 10 12 13 13 14 14 14 14 14 14 15 17 18 19 20 22 23 24 25 25 26 26 27 27 28 29 30 32 34 36 37 40 42 44 46 48
11 11 10 11 11 10 11 11 11 11 12 12 11 11 12 13 13 13 13 13 12 13 14 16 17 19 20 21 22 23 25 25 26 27 27 28 29 30 31 32 34 35 37 39 41 43 45 47 50
11 11 11 11 11 10 11 12 12 12 12 12 12 11 12 12 12 12 12 11 12 13 14 16 18 20 21 22 23 24 26 27 28 29 30 31 32 33 34 35 37 38 39 41 43 45 47 50 52
12 12 11 11 11 11 11 11 12 12 11 12 12 11 11 11 11 11 10 11 12 13 15 17 18 19 21 22 23 25 27 29 30 32 33 34 36 37 38 39 40 41 43 44 46 48 50 53 55
12 12 12 12 12 12 11 11 12 12 11 11 11 11 11 11 10 10 10 11 12 14 15 16 18 19 21 23 24 26 28 30 32 33 35 36 37 39 40 42 43 44 46 47 49 51 53 56 58
13 13 13 13 13 12 11 11 11 11 10 10 11 11 11 11 11 11 11 12 13 14 15 16 18 20 22 24 26 28 30 32 34 35 37 38 39 41 42 43 45 46 48 50 52 54 56 59 62
15 14 14 15 14 13 12 11 11 11 11 11 11 11 11 11 12 12 13 13 14 15 17 18 20 21 23 25 27 29 31 34 36 37 39 40 41 43 44 46 47 48 50 52 54 57 60 62 64
16 15 16 16 16 15 14 13 13 13 13 13 12 12 13 13 14 14 14 15 16 18 19 21 22 24 25 27 29 31 33 36 38 40 42 43 44 46 47 48 49 50 52 54 57 60 63 65 67
17 17 17 18 17 17 16 15 17 15 15 15 15 15 15 16 16 16 17 18 19 21 23 24 25 27 28 29 31 33 36 38 40 42 44 46 47 49 50 50 51 53 54 56 59 62 65 67 69
18 19 19 21 20 19 18 17 20 19 18 18 18 18 18 18 19 19 20 21 23 24 26 28 29 30 31 32 33 35 38 40 43 45 47 49 50 52 52 53 54 55 56 58 61 64 67 69 71
20 20 21 23 23 22 21 20 21 23 22 21 21 21 21 21 22 22 23 24 26 28 30 31 32 33 34 35 37 38 41 43 45 48 50 52 53 54 55 56 57 57 59 61 62 65 68 71 73
21 21 22 23 25 25 24 22 24 26 25 25 24 24 23 24 24 25 26 27 29 31 33 34 35 36 38 39 40 41 43 46 48 51 53 54 56 57 58 58 59 59 61 62 64 66 70 73 77
22 23 23 25 26 27 28 24 24 28 27 27 26 26 26 26 27 27 28 30 32 34 36 37 38 40 41 42 43 45 47 49 51 54 56 57 58 59 60 61 61 62 63 64 65 68 71 75 79
23 25 27 27 28 28 29 29 20 28 28 27 27 28 28 29 29 30 31 33 35 37 38 40 41 42 44 45 47 48 50 52 54 56 58 60 60 61 62 62 63 64 65 65 67 70 73 76 80
26 27 29 29 30 30 29 32 23 25 28 28 29 30 30 31 31 32 34 36 38 40 41 43 44 45 46 48 49 51 53 55 57 59 60 62 62 62 63 64 65 65 66 66 68 71 75 78 81
28 30 31 31 31 31 30 32 27 24 27 28 30 31 31 33 33 34 37 39 40 43 44 45 47 47 49 50 52 54 56 57 59 61 63 63 63 63 64 65 66 66 66 67 69 73 76 79 81
30 32 35 35 33 31 31 30 26 25 27 29 30 32 34 35 36 38 40 42 43 45 47 48 49 50 52 53 55 56 58 60 61 63 64 64 64 64 65 66 67 67 67 68 71 74 77 80 81
31 33 35 38 37 34 33 32 28 27 28 29 30 33 36 38 40 42 44 46 47 48 49 50 51 53 54 55 57 59 60 62 63 65 65 65 65 65 66 66 67 67 67 69 72 75 78 80 80
33 33 35 39 41 39 36 33 29 24 25 27 30 33 36 39 43 46 48 50 51 52 52 52 54 55 56 57 59 60 61 63 64 65 65 65 66 66 67 66 67 68 68 70 73 75 78 79 78
34 35 36 38 43 44 41 36 31 29 29 29 31 35 38 42 45 48 51 53 54 54 55 55 56 57 58 59 60 61 62 64 65 66 66 66 66 66 67 67 68 68 69 71 73 75 77 78 77
35 35 37 40 42 45 47 41 33 33 33 34 35 37 41 44 47 49 51 53 55 55 56 56 57 57 58 59 61 62 63 64 66 66 67 67 67 67 67 67 67 68 69 71 73 74 76 76 74
36 37 38 40 42 44 48 46 35 37 38 40 41 42 43 45 47 48 49 50 52 53 54 55 56 57 58 59 61 62 64 65 66 67 67 68 68 67 67 67 67 67 69 70 71 73 74 74 73
Wind_Direction
85 89 93 97 103 113 127 137 143 146 148 147 140 131 122 113 98 49 8 350 334 322 317 316 316 313 309 306 304 303 301 299 298 298 297 296 296 296 296 296 297 297 297 296 296 295 294 293 292
85 88 89 92 97 104 111 119 127 134 139 139 134 126 93 12 344 331 325 323 319 316 314 314 313 310 307 305 304 303 302 300 299 298 298 297 297 296 296 297 297 296 295 294 293 292 292 292 291
85 86 92 94 97 101 107 112 123 135 147 165 236 292 303 309 311 310 311 313 313 312 312 311 309 307 306 305 304 303 302 301 301 301 302 302 301 300 299 299 297 296 294 293 291 290 289 290 290
82 84 86 91 94 96 99 107 121 167 253 282 290 295 298 300 303 305 307 309 309 308 309 309 308 307 306 306 305 305 305 305 305 306 305 304 302 301 300 300 298 296 295 293 291 290 289 288 288
76 77 76 76 73 66 46 321 295 288 291 293 294 296 296 296 298 300 302 304 305 306 307 307 307 308 308 308 308 309 310 310 310 309 307 305 304 302 301 300 299 297 296 294 292 291 289 288 287
49 33 23 7 351 328 311 301 295 292 291 291 291 293 292 292 294 295 298 301 303 304 305 307 308 309 310 311 312 314 314 314 313 311 309 308 306 305 303 302 300 299 297 296 294 292 290 289 287
348 334 320 313 308 304 300 296 293 290 288 288 288 289 289 291 293 294 298 301 303 304 307 309 312 314 316 317 317 318 317 317 315 314 312 311 309 308 307 305 304 302 300 298 297 295 293 291 290
321 316 311 307 304 300 295 292 290 288 287 288 287 287 289 292 296 298 300 302 304 307 311 314 318 320 321 321 321 321 320 319 318 316 315 315 314 313 312 311 309 307 305 303 301 299 297 295 293
307 306 306 303 300 297 292 289 289 287 288 290 289 288 289 294 298 300 302 305 309 313 317 321 323 324 324 324 323 323 322 321 320 319 319 318 318 317 316 315 314 312 310 308 306 304 302 300 297
303 301 302 299 297 294 291 289 289 289 290 292 293 292 292 295 298 302 306 310 315 319 323 326 326 325 325 325 324 323 322 321 320 320 320 319 318 317 316 316 315 313 312 311 310 308 306 304 301
305 301 299 298 296 293 291 291 293 292 293 296 296 296 294 294 298 303 310 316 320 324 326 327 327 326 326 325 324 324 322 321 319 318 317 316 315 315 314 313 313 313 312 312 311 310 309 307 305
306 301 299 297 295 293 291 290 292 294 295 295 296 296 295 295 298 305 312 318 322 326 328 329 329 329 329 329 328 327 325 323 321 319 317 315 313 312 312 311 311 311 311 312 312 312 312 310 309
303 298 296 294 293 292 290 288 289 290 292 292 293 294 296 297 300 304 310 316 321 325 328 330 332 333 334 334 333 331 329 327 324 322 319 317 315 313 312 311 310 310 311 311 312 313 313 312 311
299 295 292 289 288 288 286 284 281 283 286 287 289 290 292 293 297 301 306 311 316 320 323 327 329 331 332 333 333 333 331 330 328 326 323 321 318 316 313 312 311 311 311 312 313 314 315 314 313
296 292 288 285 284 283 281 277 272 276 277 279 281 284 286 288 291 295 300 304 308 312 317 322 325 328 329 331 332 332 331 331 330 329 327 325 323 320 317 315 313 312 312 312 313 314 315 315 315
294 291 286 283 281 279 276 273 269 271 274 277 279 282 283 286 289 292 295 300 304 308 312 317 321 324 326 328 329 330 331 330 330 329 329 327 326 323 321 318 316 314 314 313 314 315 316 316 317
293 290 285 280 276 276 273 271 271 269 273 276 279 281 282 284 286 289 293 297 301 305 309 313 317 320 322 324 326 327 328 328 329 329 328 328 327 325 323 320 318 316 315 315 314 315 316 317 318
293 289 285 281 277 275 273 270 271 272 272 275 278 280 281 282 284 288 292 295 298 301 305 309 312 315 319 321 322 323 324 325 326 327 327 327 326 325 323 321 319 318 317 316 316 317 317 318 320
294 292 288 284 282 278 275 273 272 274 274 274 276 279 281 283 285 288 290 294 297 300 303 306 309 312 315 317 319 320 321 322 323 324 325 325 325 324 323 321 320 319 318 317 317 318 319 320 321
295 294 291 287 285 283 280 278 276 275 275 274 276 278 280 282 284 287 290 293 296 299 302 305 307 309 312 314 316 317 317 319 320 322 322 322 323 323 322 321 320 319 318 318 318 319 321 322 323
297 297 295 293 290 289 287 282 278 276 275 275 276 277 279 281 283 286 289 292 295 297 300 303 305 307 309 311 314 315 316 317 318 320 320 321 321 321 321 320 319 318 318 318 319 321 323 324 324
298 298 299 297 295 294 293 290 278 279 279 278 276 276 277 280 283 286 288 290 293 296 298 301 303 305 306 309 311 312 314 315 316 318 318 319 319 320 320 319 318 317 318 319 320 322 324 325 325
297 298 299 298 298 297 297 294 295 284 281 278 275 275 277 279 282 285 287 289 291 293 296 298 300 302 304 306 308 310 311 313 315 316 317 318 318 318 318 318 318 317 318 320 322 323 324 325 325
297 298 298 298 299 300 299 298 303 296 286 280 276 276 276 278 280 282 284 286 288 290 293 295 297 299 301 303 305 308 310 312 313 315 316 317 317 318 318 317 317 318 319 321 323 324 324 325 325
297 299 300 300 302 303 303 303 310 305 293 285 279 276 275 276 277 279 281 283 285 287 290 293 295 298 299 301 304 306 308 310 312 314 315 316 316 317 317 317 318 319 320 322 323 324 324 325 325
296 298 300 301 303 304 305 307 316 311 300 292 285 280 278 276 276 277 278 281 283 286 289 291 294 296 298 300 302 305 307 309 311 313 314 315 315 316 317 318 319 319 320 322 323 323 324 324 325
296 296 298 299 300 302 303 307 314 313 303 295 288 283 279 277 276 277 278 281 284 286 289 291 293 295 297 300 302 304 307 308 310 312 313 314 315 316 317 318 319 320 321 322 323 323 323 324 325
296 297 298 298 299 302 303 307 317 312 304 295 288 283 280 278 278 279 281 284 286 288 290 291 293 295 297 299 301 303 306 307 309 311 312 313 314 315 317 318 319 320 321 322 322 322 323 324 325
293 294 294 295 297 299 302 306 317 309 303 296 290 286 284 284 284 286 286 287 289 290 291 292 294 295 297 298 300 303 305 306 308 310 311 312 314 315 316 318 319 320 321 321 322 322 323 324 325
291 292 293 294 296 297 298 303 311 305 300 295 293 291 290 289 289 289 289 290 292 292 292 292 293 295 297 298 300 302 304 305 307 310 311 312 314 315 316 317 319 320 320 321 321 322 322 323 325
Height
5868 5869 5870 5871 5872 5872 5872 5873 5873 5873 5874 5875 5876 5876 5876 5877 5877 5879 5876 5874 5874 5873 5872 5872 5871 5871 5870 5870 5869 5868 5867 5866 5865 5864 5863 5862 5860 5859 5858 5857 5857 5856 5855 5854 5853 5852 5852 5852 5852
5870 5871 5872 5873 5873 5873 5874 5874 5875 5875 5876 5876 5876 5876 5876 5876 5876 5875 5874 5873 5872 5872 5871 5870 5869 5869 5868 5867 5866 5865 5864 5862 5861 5860 5859 5858 5856 5855 5854 5853 5852 5852 5851 5850 5849 5848 5847 5846 5846
5873 5874 5875 5875 5875 5875 5876 5876 5877 5877 5877 5877 5877 5877 5877 5876 5875 5874 5873 5872 5871 5870 5870 5869 5868 5867 5866 5864 5863 5861 5860 5858 5857 5855 5854 5853 5852 5851 5850 5849 5848 5847 5846 5845 5844 5843 5842 5841 5840
5876 5877 5878 5878 5877 5877 5877 5878 5878 5878 5878 5878 5878 5877 5876 5876 5874 5873 5872 5871 5870 5869 5868 5867 5866 5864 5863 5861 5859 5858 5856 5854 5852 5851 5849 5848 5847 5846 5845 5844 5842 5841 5840 5839 5838 5837 5836 5835 5834
5879 5879 5879 5879 5879 5879 5878 5878 5878 5878 5877 5877 5877 5876 5875 5874 5872 5871 5870 5869 5868 5867 5866 5864 5863 5861 5859 5857 5856 5854 5852 5850 5848 5847 5845 5844 5842 5841 5839 5838 5837 5835 5834 5832 5831 5830 5829 5827 5826
5881 5880 5880 5880 5879 5879 5878 5878 5877 5877 5876 5875 5875 5874 5873 5872 5871 5870 5869 5868 5866 5865 5864 5862 5860 5858 5856 5854 5852 5850 5848 5846 5845 5843 5841 5839 5837 5835 5833 5832 5830 5828 5826 5825 5823 5821 5820 5818 5817
5882 5881 5880 5880 5879 5878 5877 5876 5876 5875 5874 5874 5873 5872 5871 5870 5869 5868 5867 5865 5864 5863 5861 5859 5857 5855 5853 5851 5849 5847 5845 5843 5841 5838 5836 5834 5832 5829 5827 5825 5823 5821 5818 5816 5814 5812 5810 5808 5806
5880 5881 5879 5879 5877 5877 5876 5874 5874 5873 5872 5872 5871 5870 5869 5868 5867 5865 5864 5863 5861 5860 5858 5856 5854 5852 5850 5848 5846 5843 5841 5839 5836 5834 5831 5828 5826 5823 5821 5818 5815 5812 5810 5807 5805 5802 5799 5796 5794
5880 5880 5878 5877 5876 5875 5874 5873 5872 5871 5870 5870 5869 5869 5867 5865 5864 5863 5861 5860 5859 5857 5855 5853 5852 5849 5847 5845 5842 5840 5837 5834 5832 5829 5826 5823 5820 5817 5814 5811 5807 5804 5801 5798 5795 5791 5788 5785 5781
5878 5877 5876 5875 5874 5873 5872 5871 5870 5870 5869 5868 5867 5866 5865 5863 5861 5860 5858 5857 5856 5855 5853 5851 5849 5847 5844 5841 5839 5836 5833 5830 5827 5824 5821 5817 5814 5811 5807 5803 5800 5796 5792 5789 5785 5781 5777 5773 5768
5876 5875 5874 5873 5872 5871 5870 5869 5868 5867 5866 5866 5865 5864 5862 5860 5858 5857 5856 5855 5854 5852 5850 5848 5846 5843 5841 5838 5835 5832 5829 5825 5822 5819 5815 5812 5808 5804 5800 5796 5792 5788 5783 5779 5774 5770 5765 5760 5755
5874 5873 5872 5871 5870 5869 5868 5867 5866 5865 5865 5863 5862 5860 5859 5857 5856 5855 5853 5852 5851 5849 5848 5846 5843 5840 5837 5834 5831 5827 5824 5820 5816 5813 5809 5805 5801 5797 5792 5788 5783 5778 5774 5768 5763 5758 5753 5747 5742
5872 5871 5870 5869 5868 5867 5866 5865 5864 5863 5862 5860 5859 5857 5856 5855 5854 5852 5851 5850 5848 5847 5845 5843 5840 5837 5834 5830 5827 5823 5819 5815 5811 5807 5802 5798 5793 5789 5784 5779 5774 5768 5763 5758 5752 5746 5741 5734 5728
5870 5869 5868 5867 5866 5865 5864 5863 5862 5861 5859 5858 5856 5855 5854 5852 5851 5850 5848 5847 5845 5844 5841 5839 5836 5833 5830 5826 5822 5818 5814 5810 5805 5800 5795 5790 5785 5780 5775 5769 5764 5758 5752 5746 5740 5734 5728 5721 5713
5867 5867 5866 5864 5863 5862 5862 5861 5859 5858 5857 5856 5854 5853 5852 5850 5849 5847 5846 5844 5842 5840 5838 5835 5832 5829 5825 5821 5817 5813 5809 5804 5799 5794 5788 5783 5777 5771 5766 5760 5754 5748 5742 5735 5728 5721 5714 5706 5698
5865 5864 5863 5862 5861 5860 5861 5860 5857 5856 5854 5853 5852 5850 5849 5847 5846 5844 5842 5841 5838 5836 5833 5830 5827 5824 5820 5816 5812 5807 5803 5798 5793 5787 5781 5775 5769 5763 5756 5750 5743 5737 5730 5723 5716 5708 5700 5692 5683
5862 5861 5860 5859 5858 5857 5857 5856 5854 5853 5851 5850 5848 5847 5845 5844 5842 5840 5838 5836 5834 5832 5829 5826 5822 5819 5815 5810 5806 5801 5796 5791 5786 5780 5774 5767 5761 5754 5747 5740 5732 5725 5718 5711 5703 5695 5686 5678 5669
5860 5858 5857 5855 5854 5854 5853 5853 5851 5849 5848 5846 5845 5843 5842 5840 5838 5836 5834 5832 5830 5827 5824 5820 5817 5813 5808 5804 5799 5795 5789 5784 5778 5772 5765 5759 5752 5744 5737 5729 5722 5714 5706 5698 5690 5681 5672 5663 5653
5856 5854 5853 5851 5850 5849 5849 5849 5847 5845 5844 5842 5841 5839 5837 5836 5834 5832 5829 5827 5825 5822 5818 5815 5811 5806 5802 5797 5793 5788 5782 5776 5770 5764 5757 5750 5742 5735 5727 5719 5710 5702 5694 5685 5677 5667 5657 5647 5637
5852 5851 5849 5848 5845 5844 5844 5844 5843 5841 5839 5838 5836 5835 5833 5831 5829 5827 5824 5822 5819 5816 5812 5808 5804 5799 5795 5790 5785 5780 5774 5768 5762 5755 5747 5740 5732 5724 5716 5708 5699 5690 5682 5673 5663 5653 5643 5631 5619
5848 5846 5844 5843 5841 5839 5838 5840 5839 5836 5834 5833 5831 5829 5827 5825 5823 5821 5818 5816 5813 5809 5805 5801 5797 5792 5787 5782 5777 5772 5766 5759 5752 5745 5738 5730 5722 5714 5705 5696 5687 5678 5669 5659 5649 5639 5628 5615 5601
5845 5842 5840 5838 5836 5834 5833 5831 5837 5831 5829 5828 5826 5823 5821 5819 5817 5814 5812 5809 5806 5802 5798 5794 5789 5784 5779 5774 5769 5763 5757 5750 5743 5736 5728 5720 5711 5703 5694 5685 5675 5666 5656 5646 5635 5624 5612 5599 5585
5840 5838 5835 5833 5830 5830 5828 5824 5830 5827 5824 5822 5819 5817 5815 5813 5810 5808 5805 5801 5798 5794 5790 5785 5781 5776 5771 5765 5760 5754 5748 5741 5733 5725 5717 5709 5700 5691 5682 5673 5663 5653 5643 5633 5621 5609 5596 5583 5568
5835 5833 5830 5828 5826 5825 5823 5820 5822 5820 5817 5815 5812 5810 5808 5805 5803 5800 5796 5793 5789 5785 5781 5776 5772 5767 5762 5756 5750 5744 5737 5730 5722 5714 5706 5697 5689 5680 5670 5661 5651 5641 5630 5619 5607 5594 5581 5567 5552
5831 5827 5823 5820 5820 5819 5816 5814 5816 5813 5809 5806 5804 5802 5799 5797 5794 5791 5787 5783 5779 5775 5771 5767 5762 5757 5751 5746 5740 5733 5726 5719 5711 5703 5694 5686 5677 5668 5658 5648 5638 5627 5617 5605 5593 5580 5566 5552 5536
5826 5822 5818 5814 5811 5811 5809 5807 5810 5806 5801 5797 5795 5792 5789 5786 5783 5780 5776 5772 5769 5765 5761 5757 5752 5746 5741 5735 5728 5722 5715 5707 5699 5691 5683 5673 5664 5655 5645 5635 5625 5614 5603 5592 5579 5566 5552 5538 5522
5820 5817 5814 5808 5803 5802 5802 5802 5804 5800 5795 5790 5786 5782 5779 5775 5771 5768 5764 5761 5757 5754 5750 5745 5740 5735 5729 5723 5717 5710 5703 5695 5687 5679 5670 5661 5652 5642 5632 5622 5612 5601 5590 5578 5566 5553 5539 5524 5508
5814 5811 5807 5802 5796 5793 5792 5794 5795 5791 5786 5783 5778 5772 5768 5764 5760 5756 5752 5749 5745 5742 5738 5733 5728 5722 5717 5711 5704 5698 5691 5683 5675 5666 5657 5648 5639 5629 5619 5609 5598 5588 5576 5565 5553 5540 5526 5511 5495
5808 5805 5800 5796 5792 5787 5781 5786 5788 5781 5776 5772 5768 5763 5759 5755 5751 5747 5743 5739 5734 5730 5726 5721 5715 5710 5704 5698 5692 5686 5678 5670 5662 5654 5645 5635 5626 5616 5606 5596 5585 5575 5564 5552 5540 5527 5513 5499 5483
5800 5797 5794 5790 5786 5780 5774 5777 5779 5773 5766 5761 5758 5754 5749 5745 5741 5737 5733 5728 5724 5719 5714 5709 5703 5698 5692 5686 5679 5673 5665 5657 5649 5641 5632 5622 5613 5603 5593 5583 5573 5562 5551 5539 5527 5514 5501 5487 5472